Terminal Aerodrome Forecast
Issued by NWS

Home | Current Version | Previous Version | Text Only | Print | Product List | Glossary On
Versions: 1 2 3 4 5 6 7 8 9 10 11 12 13 14 15
000
FTUS45 KVEF 011120
TAFHND
TAF
KHND 011120Z 0112/0212 18011KT P6SM SKC
     FM011600 16011G17KT P6SM FEW120 FEW250
     FM012200 20013G21KT P6SM FEW120 SCT250
     FM020200 19011KT P6SM SCT250=

USA.gov is the U.S. government's official web portal to all federal, state and local government web resources and services.